Printer-friendly version

IAU Minor Planet Center

Minor Planet Center

MPEC 2000-J36: 2000 JQ3

The following Minor Planet Electronic Circular may be linked-to from your own Web pages, but must not otherwise be redistributed electronically.


Read MPEC 2000-J35 Read MPEC 2000-J37


M.P.E.C. 2000-J36                                Issued 2000 May  9, 19:28 UT

     The Minor Planet Electronic Circulars contain information on unusual
         minor planets and routine data on comets.  They are published
   on behalf of Commission 20 of the International Astronomical Union by the
          Minor Planet Center, Smithsonian Astrophysical Observatory,
                          Cambridge, MA 02138, U.S.A.

             Prepared using the Tamkin Foundation Computer Network

             BMARSDEN@CFA.HARVARD.EDU or GWILLIAMS@CFA.HARVARD.EDU
          URL http://cfa-www.harvard.edu/iau/mpc.html  ISSN 1523-6714

                                   2000 JQ3

Observations:
     K00J03Q  C2000 03 29.31398 13 33 52.30 +03 45 41.6          19.4        704
     K00J03Q  C2000 03 29.33584 13 33 51.25 +03 45 46.3          19.2        704
     K00J03Q  C2000 03 29.36603 13 33 49.72 +03 45 52.9          20.1        704
     K00J03Q  C2000 04 04.30293 13 28 39.22 +04 06 27.8          18.7 R      699
     K00J03Q  C2000 04 04.32188 13 28 38.00 +04 06 31.5                      699
     K00J03Q  C2000 04 04.34078 13 28 36.80 +04 06 34.2                      699
     K00J03Q  C2000 04 04.35969 13 28 35.67 +04 06 37.9                      699
     K00J03Q  C2000 04 08.37913 13 24 25.07 +04 17 50.1          19.5        704
     K00J03Q  C2000 04 08.39431 13 24 23.96 +04 17 52.1          19.4        704
     K00J03Q  C2000 04 08.41293 13 24 22.68 +04 17 56.2          19.5        704
     K00J03Q  C2000 04 08.43030 13 24 21.46 +04 17 57.0          19.0        704
     K00J03Q* C2000 05 04.20952 12 53 13.62 +03 32 17.1          18.5        704
     K00J03Q  C2000 05 04.22169 12 53 12.76 +03 32 11.3          18.5        704
     K00J03Q  C2000 05 04.23378 12 53 11.88 +03 32 06.6          18.9        704
     K00J03Q  C2000 05 04.24596 12 53 11.05 +03 32 02.2          18.6        704
     K00J03Q  C2000 05 04.25805 12 53 10.24 +03 31 57.0          18.1        704
     K00J03Q  C2000 05 05.20136 12 52 11.25 +03 25 01.1          19.0        704
     K00J03Q  C2000 05 05.21389 12 52 10.35 +03 24 54.6          19.2        704
     K00J03Q  C2000 05 05.22737 12 52 09.53 +03 24 47.6          19.1        704
     K00J03Q  C2000 05 05.23997 12 52 08.70 +03 24 42.3          19.2        704
     K00J03Q  C2000 05 05.25222 12 52 07.80 +03 24 35.1          19.3        704
     K00J03Q  C2000 05 06.21886 12 51 09.22 +03 17 02.1          18.4        704
     K00J03Q  C2000 05 06.23094 12 51 08.35 +03 16 55.6          18.8        704
     K00J03Q  C2000 05 06.24303 12 51 07.61 +03 16 48.9          19.3        704
     K00J03Q  C2000 05 06.25514 12 51 06.82 +03 16 44.1          18.9        704
     K00J03Q  C2000 05 06.26726 12 51 06.10 +03 16 38.4          18.6        704
     K00J03Q  C2000 05 08.83051 12 48 41.10 +02 54 15.9                      046
     K00J03Q  C2000 05 08.83344 12 48 41.05 +02 54 13.1                      046
     K00J03Q  C2000 05 08.83781 12 48 40.72 +02 54 12.1          17.6 R      046
     K00J03Q  C2000 05 08.83941 12 48 40.63 +02 54 11.3                      046
     K00J03Q  C2000 05 08.96650 12 48 33.23 +02 52 59.3                      557
     K00J03Q  C2000 05 08.97509 12 48 32.73 +02 52 54.0                      557

Observer details:
046 Klet.  Observers J. Ticha, M. Tichy.  0.57-m f/5.2 reflector + CCD.
557 Ondrejov.  Observer P. Kusnirak.  0.65-m f/3.6 reflector + CCD.
699 Lowell Observatory-LONEOS.  Observer W. D. Ferris.  Measurer B. W. Koehn.
    0.59-m LONEOS Schmidt + CCD.
704 Lincoln Laboratory ETS, New Mexico.  Observers M. Blythe, F. Shelly,
    M. Bezpalko, M. Elowitz, R. Huber.  Measurers J. Stuart, H. Viggh,
    R. Sayer, J. B. Evans.  1.0-m f/2.15 reflector + CCD.

Orbital elements:
2000 JQ3
Epoch 2000 Feb. 26.0 TT = JDT 2451600.5                 Williams
M 322.39894              (2000.0)            P               Q
n   0.25651740     Peri.  216.82674     +0.03803402     +0.99284543
a   2.4531541      Node    55.62101     -0.88101219     +0.08676906
e   0.4931801      Incl.    7.88258     -0.47156223     -0.08203095
P   3.84           H   17.6           G   0.15           U   5
From 32 observations 2000 Mar. 29-May 8, mean residual 0".60.

Ephemeris:
2000 JQ3                 a,e,i = 2.45, 0.49, 8                   q = 1.2433
Date    TT    R. A. (2000) Decl.     Delta      r     Elong.  Phase     V
2000 05 06    12 51.37   +03 18.9    0.540    1.480   143.9    23.7    18.2
2000 05 16    12 43.41   +01 35.6    0.529    1.428   133.6    30.8    18.3
2000 05 26    12 40.39   -00 52.4    0.526    1.381   124.5    37.2    18.4
2000 06 05    12 42.96   -03 59.9    0.529    1.339   116.8    42.6    18.5
2000 06 15    12 51.29   -07 41.1    0.535    1.304   110.6    46.8    18.6
2000 06 25    13 05.16   -11 48.8    0.543    1.276   105.7    50.1    18.7
2000 07 05    13 24.49   -16 15.3    0.553    1.256   102.2    52.3    18.7
2000 07 15    13 49.29   -20 50.7    0.566    1.245    99.9    53.5    18.8
2000 07 25    14 19.56   -25 20.7    0.584    1.244    98.5    53.9    18.9
2000 08 04    14 55.26   -29 28.0    0.607    1.252    97.9    53.4    19.0
2000 08 14    15 35.94   -32 53.9    0.639    1.269    97.8    52.3    19.1
2000 08 24    16 20.37   -35 20.9    0.681    1.294    97.9    50.7    19.2
2000 09 03    17 06.69   -36 38.8    0.734    1.327    98.0    48.8    19.4
2000 09 13    17 52.65   -36 47.4    0.800    1.367    97.8    46.8    19.6
2000 09 23    18 36.27   -35 55.6    0.879    1.413    97.1    44.8    19.8
2000 10 03    19 16.45   -34 17.2    0.970    1.463    95.8    42.9    20.0
2000 10 13    19 52.82   -32 06.6    1.075    1.517    94.0    41.0    20.3
2000 10 23    20 25.56   -29 36.0    1.190    1.574    91.7    39.2    20.5
2000 11 02    20 55.15   -26 54.2    1.317    1.633    88.8    37.4    20.8
2000 11 12    21 22.12   -24 07.5    1.453    1.693    85.5    35.6    21.0
2000 11 22    21 46.94   -21 19.7    1.597    1.755    81.9    33.9    21.2
2000 12 02    22 10.03   -18 33.1    1.747    1.817    77.9    32.0    21.5
2000 12 12    22 31.74   -15 49.4    1.903    1.879    73.6    30.2    21.7
2000 12 22    22 52.34   -13 09.4    2.062    1.941    69.0    28.2    21.9
2001 01 01    23 12.04   -10 33.6    2.222    2.003    64.3    26.3    22.0

Gareth V. Williams           (C) Copyright 2000 MPC           M.P.E.C. 2000-J36

Read MPEC 2000-J35 Read MPEC 2000-J37


Our Web policy. Index to the CBAT/MPC/ICQ pages.


Valid HTML 4.01!